Location: *
(58.7167°N, 26.1833°E)
Time: 23:19:06
(UTC+00:00)

NOSS 2-2 (D) - Pass Details

Date: 25 August 2019
Orbit: 492 x 1716 km, 63.3° (Epoch: 08 September)

Event Time Altitude Azimuth Distance (km) Brightness Sun altitude
Rises 21:38:31 0° 303° (WNW) 3,071 7.8 -20.2°
Reaches altitude 10° 21:40:35 10° 300° (WNW) 2,281 7.0 -20.3°
Maximum altitude 21:45:47 68° 219° (SW) 995 4.3 -20.4°
Enters shadow 21:49:01 32° 146° (SE) 1,711 5.3 -20.4°
